Wheaton, MN

11:36 AM CST on February 13, 2016 (GMT -0600)
Wheaton Municipal

Weather History for KETH - October, 2013

Change the Weather History Date:

Sunday, October 13, 2013

  Actual Average Record
Temperature  
Mean Temperature 46 °F -  
Max Temperature 60 °F 61 °F 83 °F (1958)
Min Temperature 33 °F 38 °F 19 °F (1979)
Degree Days  
Heating Degree Days 18    
Moisture  
Dew Point 37 °F    
Average Humidity 67    
Maximum Humidity 100    
Minimum Humidity 39    
Precipitation  
Precipitation 0.00 in - - ()
Sea Level Pressure  
Sea Level Pressure 30.35 in    
Wind  
Wind Speed 4 mph (SSE)    
Max Wind Speed 9 mph    
Max Gust Speed -    
Visibility 10 miles    
Events      
Averages and records for this station are not official NWS values.
T = Trace of Precipitation, MM = Missing Value Source: NWS Daily Summary

Daily Weather History Graph

Daily Weather History Graph

Search for Another Location

Airport or City:

Trip Planner

Search our weather history database for the weather conditions in past years. The results will help you decide how hot, cold, wet, or windy it might be!

Date:

Astronomy

Oct. 13, 2013 Rise Set
Actual Time 7:40 AM CDT 6:43 PM CDT
Civil Twilight 7:10 AM CDT 7:13 PM CDT
Nautical Twilight 6:36 AM CDT 7:47 PM CDT
Astronomical Twilight 6:01 AM CDT 8:22 PM CDT
Moon 3:50 PM CDT 1:35 AM CDT
Length of Visible Light 12h 02m
Length of Day
11h 02m
Waxing Gibbous, 69% of the Moon is Illuminated
Oct 13
Waxing Gibbous
Oct 18
Full
Oct 26
Last Quarter
Nov 3
New
Nov 9
First Quarter

Hourly Weather History & Observations

Time (CDT) Temp. Windchill Dew Point Humidity Pressure Visibility Wind Dir Wind Speed Gust Speed Precip Events Conditions
12:14 AM 44.6 °F 41.4 °F 37.4 °F 76% 30.24 in 10.0 mi West 5.8 mph - N/A   Clear
12:34 AM 44.6 °F 41.4 °F 37.4 °F 76% 30.24 in 10.0 mi West 5.8 mph - N/A   Clear
12:54 AM 42.8 °F 40.1 °F 37.4 °F 81% 30.24 in 10.0 mi WSW 4.6 mph - N/A   Clear
1:14 AM 42.8 °F 40.1 °F 35.6 °F 76% 30.25 in 10.0 mi WSW 4.6 mph - N/A   Clear
1:34 AM 42.8 °F 41.1 °F 35.6 °F 76% 30.25 in 10.0 mi WSW 3.5 mph - N/A   Clear
1:54 AM 42.8 °F 40.1 °F 37.4 °F 81% 30.26 in 10.0 mi WSW 4.6 mph - N/A   Clear
2:15 AM 42.8 °F 41.1 °F 37.4 °F 81% 30.27 in 10.0 mi West 3.5 mph - N/A   Clear
2:34 AM 42.8 °F 39.3 °F 37.4 °F 81% 30.29 in 10.0 mi WSW 5.8 mph - N/A   Clear
2:54 AM 42.8 °F 39.3 °F 35.6 °F 76% 30.29 in 10.0 mi WSW 5.8 mph - N/A   Clear
3:14 AM 42.8 °F 39.3 °F 37.4 °F 81% 30.30 in 10.0 mi SW 5.8 mph - N/A   Clear
3:34 AM 42.8 °F 40.1 °F 35.6 °F 76% 30.30 in 10.0 mi SW 4.6 mph - N/A   Clear
3:55 AM 42.8 °F 40.1 °F 35.6 °F 76% 30.31 in 10.0 mi WSW 4.6 mph - N/A   Clear
4:14 AM 42.8 °F 40.1 °F 35.6 °F 76% 30.31 in 10.0 mi WSW 4.6 mph - N/A   Clear
4:34 AM 42.8 °F 40.1 °F 35.6 °F 76% 30.32 in 10.0 mi WSW 4.6 mph - N/A   Clear
4:54 AM 44.6 °F 43.1 °F 37.4 °F 76% 30.32 in 10.0 mi West 3.5 mph - N/A   Clear
5:14 AM 42.8 °F 41.1 °F 35.6 °F 76% 30.32 in 10.0 mi WSW 3.5 mph - N/A   Clear
5:34 AM 41.0 °F - 35.6 °F 81% 30.33 in 10.0 mi Calm Calm - N/A   Clear
5:54 AM 41.0 °F - 35.6 °F 81% 30.34 in 10.0 mi Calm Calm - N/A   Clear
6:14 AM 41.0 °F - 35.6 °F 81% 30.34 in 10.0 mi Calm Calm - N/A   Clear
6:34 AM 37.4 °F - 33.8 °F 87% 30.35 in 10.0 mi Calm Calm - N/A   Clear
6:55 AM 35.6 °F - 32.0 °F 87% 30.36 in 10.0 mi Calm Calm - N/A   Clear
7:15 AM 33.8 °F - 32.0 °F 93% 30.36 in 10.0 mi Calm Calm - N/A   Clear
7:34 AM 33.8 °F - 32.0 °F 93% 30.37 in 10.0 mi Calm Calm - N/A   Clear
7:54 AM 33.8 °F - 32.0 °F 93% 30.38 in 10.0 mi Calm Calm - N/A   Clear
8:14 AM 33.8 °F - 33.8 °F 100% 30.39 in 10.0 mi Calm Calm - N/A   Clear
8:34 AM 35.6 °F - 33.8 °F 93% 30.39 in 10.0 mi Calm Calm - N/A   Clear
8:54 AM 37.4 °F - 37.4 °F 100% 30.40 in 10.0 mi Calm Calm - N/A   Clear
9:14 AM 44.6 °F - 39.2 °F 81% 30.41 in 10.0 mi Calm Calm - N/A   Clear
9:34 AM 48.2 °F - 41.0 °F 76% 30.41 in 10.0 mi Calm Calm - N/A   Clear
9:54 AM 50.0 °F - 41.0 °F 71% 30.42 in 10.0 mi Calm Calm - N/A   Clear
10:14 AM 51.8 °F - 39.2 °F 62% 30.42 in 10.0 mi Calm Calm - N/A   Clear
10:34 AM 51.8 °F - 41.0 °F 67% 30.41 in 10.0 mi Calm Calm - N/A   Clear
10:54 AM 53.6 °F - 37.4 °F 54% 30.42 in 10.0 mi Calm Calm - N/A   Clear
11:14 AM 55.4 °F - 37.4 °F 51% 30.42 in 10.0 mi Calm Calm - N/A   Clear
11:34 AM 55.4 °F - 37.4 °F 51% 30.42 in 10.0 mi SE 3.5 mph - N/A   Clear
11:55 AM 57.2 °F - 37.4 °F 48% 30.42 in 10.0 mi SE 3.5 mph - N/A   Clear
12:15 PM 57.2 °F - 37.4 °F 48% 30.42 in 10.0 mi ESE 3.5 mph - N/A   Clear
12:34 PM 59.0 °F - 37.4 °F 45% 30.42 in 10.0 mi WSW 4.6 mph - N/A   Clear
12:55 PM 60.8 °F - 35.6 °F 39% 30.42 in 10.0 mi Calm Calm - N/A   Clear
1:14 PM 57.2 °F - 35.6 °F 44% 30.41 in 10.0 mi South 3.5 mph - N/A   Scattered Clouds
1:34 PM 59.0 °F - 35.6 °F 42% 30.41 in 10.0 mi SSW 5.8 mph - N/A   Mostly Cloudy
1:54 PM 60.8 °F - 35.6 °F 39% 30.40 in 10.0 mi SE 9.2 mph - N/A   Scattered Clouds
2:14 PM 60.8 °F - 35.6 °F 39% 30.39 in 10.0 mi South 3.5 mph - N/A   Mostly Cloudy
2:34 PM 59.0 °F - 33.8 °F 39% 30.38 in 10.0 mi WSW 3.5 mph - N/A   Mostly Cloudy
2:55 PM 59.0 °F - 35.6 °F 42% 30.38 in 10.0 mi ESE 4.6 mph - N/A   Mostly Cloudy
3:14 PM 59.0 °F - 35.6 °F 42% 30.37 in 10.0 mi Calm Calm - N/A   Mostly Cloudy
3:34 PM 59.0 °F - 35.6 °F 42% 30.37 in 10.0 mi South 3.5 mph - N/A   Scattered Clouds
3:54 PM 59.0 °F - 35.6 °F 42% 30.37 in 10.0 mi SE 3.5 mph - N/A   Scattered Clouds
4:15 PM 59.0 °F - 35.6 °F 42% 30.37 in 10.0 mi Calm Calm - N/A   Scattered Clouds
4:34 PM 59.0 °F - 35.6 °F 42% 30.36 in 10.0 mi SE 3.5 mph - N/A   Scattered Clouds
4:54 PM 59.0 °F - 33.8 °F 39% 30.36 in 10.0 mi SSE 3.5 mph - N/A   Scattered Clouds
5:14 PM 57.2 °F - 35.6 °F 44% 30.36 in 10.0 mi SSE 4.6 mph - N/A   Scattered Clouds
5:35 PM 57.2 °F - 35.6 °F 44% 30.36 in 10.0 mi SE 4.6 mph - N/A   Scattered Clouds
5:55 PM 57.2 °F - 37.4 °F 48% 30.36 in 10.0 mi SSE 5.8 mph - N/A   Scattered Clouds
6:14 PM 55.4 °F - 39.2 °F 54% 30.36 in 10.0 mi SSE 5.8 mph - N/A   Clear
6:34 PM 55.4 °F - 39.2 °F 54% 30.36 in 10.0 mi SE 4.6 mph - N/A   Mostly Cloudy
6:54 PM 53.6 °F - 39.2 °F 58% 30.35 in 10.0 mi SE 4.6 mph - N/A   Overcast
7:14 PM 51.8 °F - 39.2 °F 62% 30.35 in 10.0 mi ESE 4.6 mph - N/A   Scattered Clouds
7:34 PM 48.2 °F - 39.2 °F 71% 30.34 in 7.0 mi East 6.9 mph - N/A   Clear
7:54 PM 48.2 °F - 37.4 °F 66% 30.34 in 10.0 mi East 6.9 mph - N/A   Clear
8:14 PM 48.2 °F - 39.2 °F 71% 30.34 in 10.0 mi East 6.9 mph - N/A   Clear
8:35 PM 50.0 °F - 39.2 °F 66% 30.35 in 10.0 mi ESE 3.5 mph - N/A   Clear
8:54 PM 48.2 °F - 39.2 °F 71% 30.35 in 10.0 mi ESE 4.6 mph - N/A   Clear
9:14 PM 48.2 °F - 39.2 °F 71% 30.35 in 10.0 mi ESE 3.5 mph - N/A   Clear
9:35 PM 46.4 °F 43.5 °F 39.2 °F 76% 30.35 in 10.0 mi ESE 5.8 mph - N/A   Clear
9:54 PM 46.4 °F 43.5 °F 39.2 °F 76% 30.35 in 10.0 mi ESE 5.8 mph - N/A   Clear
10:14 PM 44.6 °F 41.4 °F 37.4 °F 76% 30.35 in 10.0 mi ESE 5.8 mph - N/A   Scattered Clouds
10:34 PM 44.6 °F 42.2 °F 39.2 °F 81% 30.36 in 10.0 mi ESE 4.6 mph - N/A   Mostly Cloudy
10:54 PM 44.6 °F 41.4 °F 39.2 °F 81% 30.36 in 10.0 mi East 5.8 mph - N/A   Overcast
11:15 PM 44.6 °F 41.4 °F 39.2 °F 81% 30.36 in 10.0 mi East 5.8 mph - N/A   Scattered Clouds
11:35 PM 46.4 °F 43.5 °F 39.2 °F 76% 30.36 in 10.0 mi East 5.8 mph - N/A   Scattered Clouds
11:54 PM 46.4 °F 43.5 °F 39.2 °F 76% 30.36 in 10.0 mi East 5.8 mph - N/A   Scattered Clouds